Terminal Aerodrome Forecast
Issued by NWS Twin Cities, MN

Home | Current Version | Previous Version | Graphics & Text | Print | Product List | Glossary On
Versions: 1 2 3 4 5 6 7 8 9 10 11 12 13 14 15 16 17 18 19 20 21 22 23 24 25 26 27
000
FTUS43 KMPX 270200 AAA
TAFMSP
TAF AMD
KMSP 270256Z 2703/2806 26006KT P6SM FEW050 SCT090
     FM270900 29010KT P6SM SCT020 BKN035
     FM271400 31014G22KT P6SM SCT025 OVC040
     FM271800 32017G25KT P6SM -SHRA SCT030 OVC045
     FM280000 34013KT P6SM VCSH SCT035 BKN050=

USA.gov is the U.S. government's official web portal to all federal, state and local government web resources and services.